COSMOS 2145

导读

COSMOS 2145是苏联(独立联合体CIS继承)于1991年5月16日发射的“宇宙”系列卫星,该系列是世界上卫星数量最多的卫星家族,涵盖各类军用、民用、科学试验任务。多数为军用卫星,包含侦察、通信、预警等多种用途,也承担部分空间探测、技术试验任务,延续了苏联“宇宙”系列多用途卫星研发与应用体系,是冷战末期航天活动的组成部分。

Basic Information
目录编号:
21301
目录名称:
COSMOS 2145
国际标识:
1991-033C
轨道中心:
EARTH
卫星名称:
COSMOS 2145
卫星全名:
--
卫星状态:
在轨 (已飞行12905 天)
发射日期:
1991-05-16 UTC
国别 :
俄罗斯(独联体) (CIS)
星等 :
--
This satellite is enrolled in the Space Conjunction Data Service (SCDS) and the current flight risk assessment level is: No High Risk
Orbit Information
数据来源 国际轨道数据 AOE轨道数据
星历时间 2026-09-14T07:14:37+0800
8小时前
查看轨道信息
2026-09-11T22:00:00+0800
2天前
查看轨道信息
半长轴 7787.826km 7787.825km
偏心率 0.0007228 0.0007073
轨道倾角 82.561° 82.561°
近地点辐角 245.872° 252.600°
升交点赤经 250.409° 251.937°
平近点角 114.161° 66.153°
近地点 1404.059km 1404.179km
远地点 1415.319km 1415.197km
周期 113.995分钟 113.995分钟
每日圈数 12.632185 12.632187
Detailed Information
使用方式:
暂无
2D Orbit Map
3D Orbit Map
Orbit Altitude Analysis Chart
Orbit Inclination Analysis Chart
Orbit Comprehensive Analysis Chart
View Comprehensive Chart
Miss Distance Evolution Trend with All Objects Subscribe to Flight Safety Assessment
Collision Probability Evolution Trend with All Objects Subscribe to Flight Safety Assessment